User: anonymous   Login
Location: Jetmore
(38.0845°N, 99.8935°W)
Time: 22:20:45
(UTC+00:00)
Language:

Envisat - Orbit

View from above orbital plane
View from above orbital plane
View from above satellite
View from above satellite

Ground track
Ground track

The orbit data is extracted from the following two-line orbital elements,

1 27386U 02009A   21294.47732037  .00000048  00000-0  29323-4 0  9993
2 27386  98.1601 282.1623 0001226  90.5467  80.5069 14.38048593 29115
Epoch (UTC): 21 October 2021 11:27:20
Eccentricity: 0.0001226
inclination: 98.1601°
perigee height: 764 km
apogee height: 766 km
right ascension of ascending node: 282.1623°
argument of perigee: 90.5467°
revolutions per day: 14.38048593
mean anomaly at epoch: 80.5069°
orbit number at epoch: 2911

The dashed part of the orbit path shows where the satellite is in the earth's shadow,  

DLR